Weather History for Keokuk, IA

Change the Weather History Date:

Sunday, January 6, 2013

  Actual Average Record
Temperature  
Mean Temperature 28 °F -  
Max Temperature 33 °F 33 °F 66 °F (2008)
Min Temperature 24 °F 16 °F -16 °F (1979)
Degree Days  
Heating Degree Days 36    
Moisture  
Dew Point 17 °F    
Average Humidity 62    
Maximum Humidity 74    
Minimum Humidity 38    
Precipitation  
Precipitation 0.00 in - - ()
Sea Level Pressure  
Sea Level Pressure 30.23 in    
Wind  
Wind Speed 11 mph (West)    
Max Wind Speed 18 mph    
Max Gust Speed 24 mph    
Visibility 10 miles    
Events      
Averages and records for this station are not official NWS values.
T = Trace of Precipitation, MM = Missing Value Source: NWS Daily Summary

Daily Weather History Graph

Daily Weather History Graph

Search for Another Location

Airport:

Trip Planner

Search our weather history database for the weather conditions in past years. The results will help you decide how hot, cold, wet, or windy it might be!

Date:

Astronomy

Jan. 06, 2013 Rise Set
Actual Time 7:29 AM CST 4:54 PM CST
Civil Twilight 6:58 AM CST 5:25 PM CST
Nautical Twilight 6:24 AM CST 5:59 PM CST
Astronomical Twilight 5:51 AM CST 6:32 PM CST
Moon 1:43 AM CST (1/6) 12:22 PM CST (1/6)
Length of Visible Light 10h 26m
Length of Day
9h 25m
Waning Crescent, 33% of the Moon is Illuminated
Jan 6
Waning Crescent
Jan 11
New
Jan 18
First Quarter
Jan 26
Full
Feb 3
Last Quarter

Hourly Weather History & Observations

Time (CST) Temp. Windchill Dew Point Humidity Pressure Visibility Wind Dir Wind Speed Gust Speed Precip Events Conditions
12:15 AM 32.0 °F 21.2 °F 21.2 °F 64% 30.05 in 10.0 mi WNW 16.1 mph 23.0 mph N/A   Scattered Clouds
12:35 AM 32.0 °F 22.1 °F 21.2 °F 64% 30.05 in 10.0 mi NW 13.8 mph 17.3 mph N/A   Overcast
12:55 AM 32.0 °F 23.0 °F 21.2 °F 64% 30.05 in 10.0 mi WNW 11.5 mph 18.4 mph N/A   Overcast
1:15 AM 32.0 °F 22.5 °F 21.2 °F 64% 30.06 in 10.0 mi WNW 12.7 mph 18.4 mph N/A   Overcast
1:35 AM 30.2 °F 21.9 °F 21.2 °F 69% 30.06 in 10.0 mi WNW 9.2 mph - N/A   Overcast
1:55 AM 30.2 °F 22.6 °F 21.2 °F 69% 30.06 in 10.0 mi WNW 8.1 mph - N/A   Overcast
2:15 AM 30.2 °F 21.3 °F 21.2 °F 69% 30.07 in 10.0 mi WNW 10.4 mph - N/A   Overcast
2:35 AM 30.2 °F 19.3 °F 21.2 °F 69% 30.07 in 10.0 mi WNW 15.0 mph - N/A   Overcast
2:55 AM 30.2 °F 20.8 °F 21.2 °F 69% 30.08 in 10.0 mi WNW 11.5 mph 20.7 mph N/A   Overcast
3:15 AM 30.2 °F 19.3 °F 19.4 °F 64% 30.08 in 10.0 mi West 15.0 mph 18.4 mph N/A   Overcast
3:35 AM 30.2 °F 20.2 °F 19.4 °F 64% 30.09 in 10.0 mi WNW 12.7 mph - N/A   Overcast
3:55 AM 30.2 °F 19.8 °F 19.4 °F 64% 30.10 in 10.0 mi WNW 13.8 mph - N/A   Overcast
4:15 AM 28.4 °F 18.0 °F 19.4 °F 69% 30.11 in 10.0 mi NW 12.7 mph 23.0 mph N/A   Overcast
4:35 AM 28.4 °F 19.1 °F 21.2 °F 74% 30.11 in 7.0 mi NW 10.4 mph 18.4 mph N/A   Overcast
4:55 AM 28.4 °F 16.6 °F 19.4 °F 69% 30.12 in 7.0 mi WNW 16.1 mph - N/A   Overcast
5:35 AM 28.4 °F 15.8 °F 19.4 °F 69% 30.14 in 7.0 mi NW 18.4 mph 23.0 mph N/A   Overcast
5:55 AM 26.6 °F 13.8 °F 19.4 °F 74% 30.15 in 7.0 mi NW 17.3 mph - N/A   Overcast
6:35 AM 24.8 °F 13.4 °F 17.6 °F 74% 30.16 in 10.0 mi WNW 12.7 mph 17.3 mph N/A   Scattered Clouds
6:55 AM 24.8 °F 12.4 °F 17.6 °F 74% 30.17 in 7.0 mi WNW 15.0 mph 19.6 mph N/A   Clear
7:15 AM 24.8 °F 14.0 °F 17.6 °F 74% 30.18 in 7.0 mi West 11.5 mph - N/A   Clear
7:35 AM 24.8 °F 12.9 °F 17.6 °F 74% 30.19 in 7.0 mi West 13.8 mph 19.6 mph N/A   Clear
7:55 AM 24.8 °F 14.0 °F 15.8 °F 69% 30.21 in 7.0 mi WNW 11.5 mph 16.1 mph N/A   Clear
8:15 AM 24.8 °F 11.9 °F 15.8 °F 69% 30.22 in 7.0 mi West 16.1 mph 19.6 mph N/A   Clear
8:35 AM 24.8 °F 11.5 °F 15.8 °F 69% 30.23 in 7.0 mi WNW 17.3 mph 24.2 mph N/A   Mostly Cloudy
8:55 AM 24.8 °F 12.9 °F 15.8 °F 69% 30.24 in 7.0 mi WNW 13.8 mph - N/A   Overcast
9:15 AM 24.8 °F 13.4 °F 15.8 °F 69% 30.25 in 7.0 mi WNW 12.7 mph - N/A   Scattered Clouds
9:35 AM 24.8 °F 12.9 °F 15.8 °F 69% 30.25 in 10.0 mi West 13.8 mph 17.3 mph N/A   Scattered Clouds
9:55 AM 24.8 °F 14.0 °F 15.8 °F 69% 30.26 in 10.0 mi West 11.5 mph 16.1 mph N/A   Clear
10:15 AM 26.6 °F 16.2 °F 17.6 °F 69% 30.27 in 10.0 mi West 11.5 mph - N/A   Clear
10:35 AM 26.6 °F 16.8 °F 17.6 °F 69% 30.28 in 10.0 mi WNW 10.4 mph - N/A   Clear
10:55 AM 28.4 °F 18.5 °F 17.6 °F 64% 30.28 in 10.0 mi WNW 11.5 mph - N/A   Scattered Clouds
11:15 AM 28.4 °F 19.7 °F 17.6 °F 64% 30.28 in 10.0 mi WNW 9.2 mph 17.3 mph N/A   Scattered Clouds
11:35 AM 30.2 °F 20.8 °F 17.6 °F 60% 30.27 in 10.0 mi West 11.5 mph - N/A   Clear
11:55 AM 30.2 °F 21.3 °F 17.6 °F 60% 30.27 in 10.0 mi West 10.4 mph - N/A   Clear
12:15 PM 30.2 °F 21.9 °F 17.6 °F 60% 30.27 in 10.0 mi West 9.2 mph - N/A   Clear
12:35 PM 30.2 °F 21.9 °F 15.8 °F 55% 30.27 in 10.0 mi WNW 9.2 mph - N/A   Clear
12:55 PM 32.0 °F 23.0 °F 15.8 °F 51% 30.27 in 10.0 mi West 11.5 mph - N/A   Clear
1:15 PM 33.8 °F 27.0 °F 15.8 °F 48% 30.27 in 10.0 mi West 8.1 mph - N/A   Clear
1:35 PM 33.8 °F 25.8 °F 15.8 °F 48% 30.27 in 10.0 mi West 10.4 mph - N/A   Clear
1:55 PM 33.8 °F 26.4 °F 14.0 °F 44% 30.28 in 10.0 mi WNW 9.2 mph - N/A   Clear
2:15 PM 33.8 °F 29.6 °F 12.2 °F 41% 30.28 in 10.0 mi West 4.6 mph - N/A   Clear
2:35 PM 33.8 °F 26.4 °F 12.2 °F 41% 30.28 in 10.0 mi West 9.2 mph - N/A   Clear
2:55 PM 33.8 °F 27.0 °F 10.4 °F 38% 30.28 in 10.0 mi WNW 8.1 mph - N/A   Clear
3:15 PM 33.8 °F 28.6 °F 10.4 °F 38% 30.29 in 10.0 mi WNW 5.8 mph - N/A   Clear
3:35 PM 33.8 °F 29.6 °F 10.4 °F 38% 30.30 in 10.0 mi West 4.6 mph - N/A   Clear
3:55 PM 33.8 °F 27.0 °F 12.2 °F 41% 30.30 in 10.0 mi West 8.1 mph - N/A   Clear
4:15 PM 33.8 °F 28.6 °F 12.2 °F 41% 30.31 in 10.0 mi West 5.8 mph - N/A   Clear
4:35 PM 30.2 °F 24.3 °F 14.0 °F 51% 30.31 in 10.0 mi West 5.8 mph - N/A   Clear
4:55 PM 30.2 °F 25.4 °F 14.0 °F 51% 30.32 in 10.0 mi West 4.6 mph - N/A   Clear
5:15 PM 30.2 °F - 14.0 °F 51% 30.31 in 10.0 mi Calm Calm - N/A   Clear
5:35 PM 28.4 °F - 12.2 °F 51% 30.31 in 10.0 mi Calm Calm - N/A   Clear
5:55 PM 28.4 °F - 14.0 °F 55% 30.32 in 10.0 mi Calm Calm - N/A   Clear
6:15 PM 28.4 °F 24.6 °F 14.0 °F 55% 30.32 in 10.0 mi SSW 3.5 mph - N/A   Clear
6:35 PM 26.6 °F 22.6 °F 14.0 °F 59% 30.32 in 10.0 mi SSW 3.5 mph - N/A   Clear
6:55 PM 24.8 °F 17.9 °F 14.0 °F 64% 30.33 in 10.0 mi SSW 5.8 mph - N/A   Clear
7:15 PM 24.8 °F 19.1 °F 15.8 °F 69% 30.33 in 10.0 mi SSW 4.6 mph - N/A   Clear
7:35 PM 26.6 °F 22.6 °F 15.8 °F 64% 30.33 in 10.0 mi South 3.5 mph - N/A   Clear
7:55 PM 28.4 °F 24.6 °F 15.8 °F 59% 30.33 in 10.0 mi SSW 3.5 mph - N/A   Clear
8:15 PM 24.8 °F 19.1 °F 15.8 °F 69% 30.33 in 10.0 mi South 4.6 mph - N/A   Clear
8:35 PM 24.8 °F 19.1 °F 15.8 °F 69% 30.32 in 10.0 mi SSW 4.6 mph - N/A   Clear
8:55 PM 26.6 °F 21.2 °F 17.6 °F 69% 30.32 in 10.0 mi South 4.6 mph - N/A   Clear
9:15 PM 24.8 °F 19.1 °F 15.8 °F 69% 30.32 in 10.0 mi SSW 4.6 mph - N/A   Clear
9:55 PM 24.8 °F 17.9 °F 15.8 °F 69% 30.32 in 10.0 mi SW 5.8 mph - N/A   Clear
10:35 PM 24.8 °F 16.9 °F 15.8 °F 69% 30.32 in 10.0 mi SSW 6.9 mph - N/A   Clear
10:55 PM 24.8 °F 16.9 °F 17.6 °F 74% 30.32 in 10.0 mi SSW 6.9 mph - N/A   Clear
11:35 PM 24.8 °F 16.9 °F 17.6 °F 74% 30.32 in 10.0 mi South 6.9 mph - N/A   Clear
11:55 PM 24.8 °F 19.1 °F 17.6 °F 74% 30.31 in 10.0 mi South 4.6 mph - N/A   Clear